AirNav   Everest Fuels
 
 1027 users online  

CYQG Windsor Airport
Windsor, Ontario, Canada

GOING TO WINDSOR?


FAA INFORMATION EFFECTIVE 16 JULY 2020

The information below comes from the U.S. Federal Aviation Administration (FAA). The FAA is not the official source of data for facilities located outside the United States, and THESE RECORDS ARE LIKELY NOT COMPLETE OR CORRECT.

Location

FAA Identifier: CYQG
Lat/Long: 42-16-33.1111N 082-57-27.5347W
42-16.551852N 082-57.458912W
42.2758642,-82.9576485
(estimated)
Elevation: 622 ft. / 190 m (estimated)
Variation: 07W ()
Time zone: UTC -4 (UTC -5 during Standard Time)
Zip code: 48243

Airport Operations

Airport use: Open to the public
Activation date: 03/2005
Control tower: no
ARTCC: CLEVELAND CENTER
FSS: LONDON FIC FLIGHT SERVICE STATION
Attendance: 
Segmented circle: no

Airport Communications

WX ASOS at DET (8 nm N): PHONE 313-371-9696
WX AWOS-3 at ONZ (14 nm SW): 119.675 (734-692-9686)
WX ASOS at DTW (18 nm W): 133.675 (734-955-5015)
WX AWOS-3 at VLL (19 nm NW): 119.475 (248-288-4649)

Nearby radio navigation aids

VOR radial/distance  VOR name  Freq  Var
DXOr084/18.6DETROIT VOR/DME113.4006W
CRLr061/26.1CARLETON VOR/DME115.7003W
SVMr109/29.3SALEM VORTAC114.3003W

 
NDB name  Hdg/Dist  Freq  Var  ID
GROSSE ILE047/13.641907WRYS .-. -.-- ...

Airport Services

Runway Information

Runway 7/25

Dimensions: 9000 x 200 ft. / 2743 x 61 m
Surface: asphalt
RUNWAY 7  RUNWAY 25
Latitude: 42-16.404018N42-17.086803N
Longitude: 082-58.209487W082-56.438652W
Elevation: 622.0 ft.608.0 ft.
Traffic pattern: leftleft
Runway heading: 070 magnetic, 063 true250 magnetic, 243 true
Displaced threshold: 901 ft.1143 ft.
Touchdown point: yes, no lightsyes, no lights

Runway 12/30

Dimensions: 5150 x 150 ft. / 1570 x 46 m
Surface: asphalt
RUNWAY 12  RUNWAY 30
Latitude: 42-16.396830N42-16.030400N
Longitude: 082-58.209295W082-57.179820W
Elevation: 622.0 ft.619.0 ft.
Traffic pattern: leftleft
Runway heading: 123 magnetic, 116 true303 magnetic, 296 true
Displaced threshold: 570 ft.321 ft.
Touchdown point: yes, no lightsyes, no lights

Airport Ownership and Management from official FAA records

Ownership: Publicly-owned

Additional Remarks

FOR CD CTC DETROIT APCH AT 800-499-8181.

Instrument Procedures

There are no published instrument procedures at CYQG.

Some nearby airports with instrument procedures:

KDET - Coleman A Young Municipal Airport (8 nm N)
KONZ - Grosse Ile Municipal Airport (14 nm SW)
KDTW - Detroit Metropolitan Wayne County Airport (18 nm W)
KVLL - Oakland/Troy Airport (19 nm NW)
KMTC - Selfridge Air National Guard Base (21 nm N)
 
Loc | Ops | Rwys | IFR | FBO | Links
Com | Nav | Svcs | Stats | Notes
Aerial photo
No photo
 
Airport distance calculator
Flying to Windsor Airport? Find the distance to fly.

From to CYQG

Sunrise and sunset
Times for 04-Aug-2020
 Local
(UTC-4)
 Zulu
(UTC)
Morning civil twilight05:5809:58
Sunrise06:3010:30
Sunset20:4600:46
Evening civil twilight21:1701:17

Current date and time
Zulu (UTC)  05-Aug-2020 02:03:34
Local (UTC-4)  04-Aug-2020 22:03:34
 
METAR
CYQG 050100Z AUTO 01004KT 9SM FEW043 18/14 A2998 RMK SLP154 DENSITY ALT 900FT
KDET 
8nm N 
050153Z 01006KT 10SM OVC090 18/14 A3000 RMK AO2 SLP156 T01830139
KONZ 
14nm SW 
050155Z AUTO 03004KT 10SM SCT033 BKN039 OVC047 19/14 A2999 RMK AO2 T01900141
CXHA 
15nm S 
050100Z AUTO 03003KT 17/15 RMK AO1 SLP148 T01680148 53011
KDTW 
17nm W 
050154Z 03009KT 10SM SCT030 BKN060 BKN075 18/12 A3001 RMK AO2 RAB28E42 SLP158 T01830122 $
KVLL 
19nm NW 
050155Z AUTO 35003KT 10SM SCT021 SCT055 OVC100 18/16 A3002 RMK AO2 T01810156
TAF
CYQG 042311Z 0423/0518 34010KT P6SM BKN040 TEMPO 0423/0424 P6SM -SHRA BKN020 FM050200 32006KT P6SM SCT040 RMK FCST BASED ON AUTO OBS. NXT FCST BY 050000Z
KDET 
8nm N 
041739Z 0418/0518 32011KT P6SM SCT025 BKN035 FM042000 32010KT P6SM SCT035 BKN050 TEMPO 0420/0424 -SHRA BKN030 FM050200 33004KT P6SM SCT040 FM051000 30005KT P6SM FEW030 SCT040
KDTW 
17nm W 
042050Z 0421/0524 32010KT P6SM SCT035 BKN050 TEMPO 0421/0424 BKN030 FM050200 33004KT P6SM SCT040 FM051000 30005KT P6SM FEW030 SCT040
NOTAMs
Click for the latest NOTAMs
NOTAMs are issued by the DoD/FAA and will open in a separate window not controlled by AirNav.

 

 
 

Would you like to see your business listed on this page?

 If your business provides an interesting product or service to pilots, flight crews, aircraft, or users of the Windsor Airport, you should consider listing it here.  To start the listing process, click on the button below
 
Add a business
 

Other Pages about Windsor Airport

Update a link
 
Copyright © AirNav, LLC. All rights reserved. Privacy Policy  Contact